Time,TemperatureF,DewpointF,PressureIn,WindDirection,WindDirectionDegrees,WindSpeedMPH,WindSpeedGustMPH,Humidity,HourlyPrecipIn,Conditions,Clouds,dailyrainin,SoftwareType,DateUTC
2013-07-16 00:00:00,72.9,71.1,30.33,NE,44,0.0,0.0,94,0.00,,,0.00,Wunderground v.1.15,2013-07-16 04:00:00,
2013-07-16 00:01:00,72.9,71.1,30.33,NE,44,0.0,0.0,94,0.00,,,0.00,Wunderground v.1.15,2013-07-16 04:01:00,
2013-07-16 00:02:00,72.9,71.1,30.33,NE,44,0.0,0.0,94,0.00,,,0.00,Wunderground v.1.15,2013-07-16 04:02:00,
2013-07-16 00:03:00,72.9,71.1,30.33,NE,44,0.0,0.0,94,0.00,,,0.00,Wunderground v.1.15,2013-07-16 04:03:00,
2013-07-16 00:05:00,72.8,71.0,30.33,NE,44,0.0,0.0,94,0.00,,,0.00,Wunderground v.1.15,2013-07-16 04:05:00,
2013-07-16 00:11:00,72.8,71.0,30.33,NE,44,0.0,0.0,94,0.00,,,0.00,Wunderground v.1.15,2013-07-16 04:11:00,
2013-07-16 00:12:00,72.8,71.0,30.33,NE,44,0.0,0.0,94,0.00,,,0.00,Wunderground v.1.15,2013-07-16 04:12:00,
2013-07-16 00:18:00,72.8,71.0,30.33,NE,44,0.0,0.0,94,0.00,,,0.00,Wunderground v.1.15,2013-07-16 04:18:00,
2013-07-16 00:24:00,72.7,70.9,30.33,NE,44,0.0,0.0,94,0.00,,,0.00,Wunderground v.1.15,2013-07-16 04:24:00,
2013-07-16 00:30:00,72.7,70.9,30.34,NE,44,0.0,0.0,94,0.00,,,0.00,Wunderground v.1.15,2013-07-16 04:30:00,
2013-07-16 00:35:00,72.6,70.8,30.34,NE,44,0.0,0.0,94,0.00,,,0.00,Wunderground v.1.15,2013-07-16 04:35:00,
2013-07-16 00:41:00,72.5,70.7,30.33,NE,44,0.0,0.0,94,0.00,,,0.00,Wunderground v.1.15,2013-07-16 04:41:00,
2013-07-16 00:47:00,72.5,71.0,30.33,NE,44,0.0,0.0,95,0.00,,,0.00,Wunderground v.1.15,2013-07-16 04:47:00,
2013-07-16 00:53:00,72.4,70.9,30.34,NE,44,0.0,0.0,95,0.00,,,0.00,Wunderground v.1.15,2013-07-16 04:53:00,
2013-07-16 00:58:00,72.4,70.9,30.34,NE,44,0.0,0.0,95,0.00,,,0.00,Wunderground v.1.15,2013-07-16 04:58:00,
2013-07-16 01:03:00,72.3,70.8,30.33,NE,44,0.0,0.0,95,0.00,,,0.00,Wunderground v.1.15,2013-07-16 05:03:00,
2013-07-16 01:09:00,72.3,70.8,30.33,NE,44,0.0,0.0,95,0.00,,,0.00,Wunderground v.1.15,2013-07-16 05:09:00,
2013-07-16 01:15:00,72.2,70.7,30.34,NE,44,0.0,0.0,95,0.00,,,0.00,Wunderground v.1.15,2013-07-16 05:15:00,
2013-07-16 01:20:00,72.2,70.7,30.34,NE,44,0.0,0.0,95,0.00,,,0.00,Wunderground v.1.15,2013-07-16 05:20:00,
2013-07-16 01:26:00,72.1,70.6,30.33,NE,44,0.0,0.0,95,0.00,,,0.00,Wunderground v.1.15,2013-07-16 05:26:00,
2013-07-16 01:32:00,72.1,70.6,30.34,NE,44,0.0,0.0,95,0.00,,,0.00,Wunderground v.1.15,2013-07-16 05:32:00,
2013-07-16 01:38:00,72.0,70.8,30.34,NE,44,0.0,0.0,96,0.00,,,0.00,Wunderground v.1.15,2013-07-16 05:38:00,
2013-07-16 01:44:00,72.1,70.9,30.34,NE,44,0.0,0.0,96,0.00,,,0.00,Wunderground v.1.15,2013-07-16 05:44:00,
2013-07-16 01:50:00,72.0,70.8,30.33,NE,44,0.0,0.0,96,0.00,,,0.00,Wunderground v.1.15,2013-07-16 05:50:00,
2013-07-16 01:55:00,71.9,70.7,30.33,NE,44,0.0,0.0,96,0.00,,,0.00,Wunderground v.1.15,2013-07-16 05:55:00,
2013-07-16 02:01:00,71.9,70.7,30.33,NE,44,0.0,0.0,96,0.00,,,0.00,Wunderground v.1.15,2013-07-16 06:01:00,
2013-07-16 02:07:00,71.8,70.6,30.33,NE,44,0.0,0.0,96,0.00,,,0.00,Wunderground v.1.15,2013-07-16 06:07:00,
2013-07-16 02:13:00,71.8,70.6,30.33,NE,44,0.0,0.0,96,0.00,,,0.00,Wunderground v.1.15,2013-07-16 06:13:00,
2013-07-16 02:19:00,71.8,70.6,30.33,NE,44,0.0,0.0,96,0.00,,,0.00,Wunderground v.1.15,2013-07-16 06:19:00,
2013-07-16 02:25:00,71.7,70.5,30.33,NE,44,0.0,0.0,96,0.00,,,0.00,Wunderground v.1.15,2013-07-16 06:25:00,
2013-07-16 02:31:00,71.7,70.5,30.33,NE,44,0.0,0.0,96,0.00,,,0.00,Wunderground v.1.15,2013-07-16 06:31:00,
2013-07-16 02:37:00,71.6,70.4,30.33,NE,44,0.0,0.0,96,0.00,,,0.00,Wunderground v.1.15,2013-07-16 06:37:00,
2013-07-16 02:43:00,71.6,70.4,30.32,NE,44,0.0,0.0,96,0.00,,,0.00,Wunderground v.1.15,2013-07-16 06:43:00,
2013-07-16 02:49:00,71.5,70.3,30.32,NE,44,0.0,0.0,96,0.00,,,0.00,Wunderground v.1.15,2013-07-16 06:49:00,
2013-07-16 02:55:00,71.4,70.2,30.32,NE,44,0.0,0.0,96,0.00,,,0.00,Wunderground v.1.15,2013-07-16 06:55:00,
2013-07-16 03:00:00,71.4,70.2,30.32,NE,44,0.0,0.0,96,0.00,,,0.00,Wunderground v.1.15,2013-07-16 07:00:00,
2013-07-16 03:06:00,71.3,70.1,30.32,NE,44,0.0,0.0,96,0.00,,,0.00,Wunderground v.1.15,2013-07-16 07:06:00,
2013-07-16 03:12:00,71.3,70.1,30.32,NE,44,0.0,0.0,96,0.00,,,0.00,Wunderground v.1.15,2013-07-16 07:12:00,
2013-07-16 03:18:00,71.2,70.3,30.32,NE,44,0.0,0.0,97,0.00,,,0.00,Wunderground v.1.15,2013-07-16 07:18:00,
2013-07-16 03:23:00,71.2,70.3,30.32,NE,44,0.0,0.0,97,0.00,,,0.00,Wunderground v.1.15,2013-07-16 07:23:00,
2013-07-16 03:29:00,71.2,70.3,30.32,NE,44,0.0,0.0,97,0.00,,,0.00,Wunderground v.1.15,2013-07-16 07:29:00,
2013-07-16 03:35:00,71.2,70.3,30.32,NE,44,0.0,0.0,97,0.00,,,0.00,Wunderground v.1.15,2013-07-16 07:35:00,
2013-07-16 03:41:00,71.2,70.3,30.32,NE,44,0.0,0.0,97,0.00,,,0.00,Wunderground v.1.15,2013-07-16 07:41:00,
2013-07-16 03:47:00,71.2,70.3,30.32,NE,44,0.0,0.0,97,0.00,,,0.00,Wunderground v.1.15,2013-07-16 07:47:00,
2013-07-16 03:53:00,71.2,70.3,30.33,NE,44,0.0,0.0,97,0.00,,,0.00,Wunderground v.1.15,2013-07-16 07:53:00,
2013-07-16 03:59:00,71.2,70.3,30.33,NE,44,0.0,0.0,97,0.00,,,0.00,Wunderground v.1.15,2013-07-16 07:59:00,
2013-07-16 04:04:00,71.2,70.3,30.33,NE,44,0.0,0.0,97,0.00,,,0.00,Wunderground v.1.15,2013-07-16 08:04:00,
2013-07-16 04:10:00,71.1,70.2,30.33,NE,44,0.0,0.0,97,0.00,,,0.00,Wunderground v.1.15,2013-07-16 08:10:00,
2013-07-16 04:16:00,71.0,70.1,30.33,NE,44,0.0,0.0,97,0.00,,,0.00,Wunderground v.1.15,2013-07-16 08:16:00,
2013-07-16 04:22:00,71.0,70.1,30.33,NE,44,0.0,0.0,97,0.00,,,0.00,Wunderground v.1.15,2013-07-16 08:22:00,
2013-07-16 04:28:00,71.0,70.1,30.33,NE,44,0.0,0.0,97,0.00,,,0.00,Wunderground v.1.15,2013-07-16 08:28:00,
2013-07-16 04:34:00,71.1,70.2,30.32,NE,44,0.0,0.0,97,0.00,,,0.00,Wunderground v.1.15,2013-07-16 08:34:00,
2013-07-16 04:40:00,71.0,70.1,30.32,NE,44,0.0,0.0,97,0.00,,,0.00,Wunderground v.1.15,2013-07-16 08:40:00,
2013-07-16 04:45:00,71.0,70.1,30.33,NE,44,0.0,0.0,97,0.00,,,0.00,Wunderground v.1.15,2013-07-16 08:45:00,
2013-07-16 04:51:00,71.0,70.1,30.33,NE,44,0.0,0.0,97,0.00,,,0.00,Wunderground v.1.15,2013-07-16 08:51:00,
2013-07-16 04:57:00,71.1,70.5,30.33,NE,44,0.0,0.0,98,0.00,,,0.00,Wunderground v.1.15,2013-07-16 08:57:00,
2013-07-16 05:03:00,71.1,70.2,30.33,NE,44,0.0,0.0,97,0.00,,,0.00,Wunderground v.1.15,2013-07-16 09:03:00,
2013-07-16 05:09:00,71.1,70.2,30.33,NE,44,0.0,0.0,97,0.00,,,0.00,Wunderground v.1.15,2013-07-16 09:09:00,
2013-07-16 05:14:00,71.2,70.6,30.33,NE,44,0.0,0.0,98,0.00,,,0.00,Wunderground v.1.15,2013-07-16 09:14:00,
2013-07-16 05:20:00,71.3,70.7,30.34,NE,44,0.0,0.0,98,0.00,,,0.00,Wunderground v.1.15,2013-07-16 09:20:00,
2013-07-16 05:26:00,71.5,70.9,30.34,NE,44,0.0,0.0,98,0.00,,,0.00,Wunderground v.1.15,2013-07-16 09:26:00,
2013-07-16 05:32:00,71.6,71.0,30.34,NE,44,0.0,0.0,98,0.00,,,0.00,Wunderground v.1.15,2013-07-16 09:32:00,
2013-07-16 05:38:00,71.7,71.1,30.34,NE,44,0.0,0.0,98,0.00,,,0.00,Wunderground v.1.15,2013-07-16 09:38:00,
2013-07-16 05:44:00,71.7,71.1,30.34,NE,44,0.0,0.0,98,0.00,,,0.00,Wunderground v.1.15,2013-07-16 09:44:00,
2013-07-16 05:50:00,71.7,71.1,30.34,NE,44,0.0,0.0,98,0.00,,,0.00,Wunderground v.1.15,2013-07-16 09:50:00,
2013-07-16 05:56:00,71.6,71.0,30.34,NE,44,0.0,0.0,98,0.00,,,0.00,Wunderground v.1.15,2013-07-16 09:56:00,
2013-07-16 06:02:00,71.5,70.9,30.34,NE,44,0.0,0.0,98,0.00,,,0.00,Wunderground v.1.15,2013-07-16 10:02:00,
2013-07-16 06:08:00,71.5,70.9,30.34,NE,44,0.0,0.0,98,0.00,,,0.00,Wunderground v.1.15,2013-07-16 10:08:00,
2013-07-16 06:14:00,71.5,70.9,30.34,NE,44,0.0,0.0,98,0.00,,,0.00,Wunderground v.1.15,2013-07-16 10:14:00,
2013-07-16 06:20:00,71.4,70.8,30.34,NE,44,0.0,0.0,98,0.00,,,0.00,Wunderground v.1.15,2013-07-16 10:20:00,
2013-07-16 06:25:00,71.4,70.8,30.35,NE,44,0.0,0.0,98,0.00,,,0.00,Wunderground v.1.15,2013-07-16 10:25:00,
2013-07-16 06:31:00,71.3,70.7,30.34,NE,44,0.0,0.0,98,0.00,,,0.00,Wunderground v.1.15,2013-07-16 10:31:00,
2013-07-16 06:37:00,71.3,70.7,30.34,NE,44,0.0,0.0,98,0.00,,,0.00,Wunderground v.1.15,2013-07-16 10:37:00,
2013-07-16 06:43:00,71.3,70.7,30.35,NE,44,0.0,0.0,98,0.00,,,0.00,Wunderground v.1.15,2013-07-16 10:43:00,
2013-07-16 06:49:00,71.3,70.7,30.35,NE,44,0.0,0.0,98,0.00,,,0.00,Wunderground v.1.15,2013-07-16 10:49:00,
2013-07-16 06:55:00,71.3,70.7,30.35,NE,44,0.0,0.0,98,0.00,,,0.00,Wunderground v.1.15,2013-07-16 10:55:00,
2013-07-16 07:01:00,71.4,70.8,30.35,NE,44,0.0,0.0,98,0.00,,,0.00,Wunderground v.1.15,2013-07-16 11:01:00,
2013-07-16 07:06:00,71.5,70.9,30.35,NE,44,0.0,0.0,98,0.00,,,0.00,Wunderground v.1.15,2013-07-16 11:06:00,
2013-07-16 07:12:00,71.7,71.1,30.35,NE,44,0.0,0.0,98,0.00,,,0.00,Wunderground v.1.15,2013-07-16 11:12:00,
2013-07-16 07:18:00,71.9,71.3,30.35,NE,44,0.0,0.0,98,0.00,,,0.00,Wunderground v.1.15,2013-07-16 11:18:00,
2013-07-16 07:24:00,72.0,71.4,30.35,NE,44,0.0,0.0,98,0.00,,,0.00,Wunderground v.1.15,2013-07-16 11:24:00,
2013-07-16 07:30:00,72.3,71.7,30.36,NE,44,0.0,0.0,98,0.00,,,0.00,Wunderground v.1.15,2013-07-16 11:30:00,
2013-07-16 07:35:00,72.6,72.3,30.36,NE,44,0.0,0.0,99,0.00,,,0.00,Wunderground v.1.15,2013-07-16 11:35:00,
2013-07-16 07:41:00,72.9,72.3,30.36,NE,44,0.0,0.0,98,0.00,,,0.00,Wunderground v.1.15,2013-07-16 11:41:00,
2013-07-16 07:47:00,73.4,73.1,30.36,NE,44,0.0,0.0,99,0.00,,,0.00,Wunderground v.1.15,2013-07-16 11:47:00,
2013-07-16 07:52:00,73.7,73.4,30.36,NE,44,0.0,0.0,99,0.00,,,0.00,Wunderground v.1.15,2013-07-16 11:52:00,
2013-07-16 07:58:00,74.1,73.8,30.36,NE,44,0.0,0.0,99,0.00,,,0.00,Wunderground v.1.15,2013-07-16 11:58:00,
2013-07-16 08:04:00,74.4,74.1,30.36,NE,44,0.0,0.0,99,0.00,,,0.00,Wunderground v.1.15,2013-07-16 12:04:00,
2013-07-16 08:10:00,74.9,74.6,30.36,NE,44,0.0,0.0,99,0.00,,,0.00,Wunderground v.1.15,2013-07-16 12:10:00,
2013-07-16 08:16:00,75.4,75.1,30.36,NE,44,0.0,0.0,99,0.00,,,0.00,Wunderground v.1.15,2013-07-16 12:16:00,
2013-07-16 08:22:00,76.0,75.4,30.36,NE,44,0.0,0.0,98,0.00,,,0.00,Wunderground v.1.15,2013-07-16 12:22:00,
2013-07-16 08:28:00,76.5,75.9,30.36,NE,44,0.0,0.0,98,0.00,,,0.00,Wunderground v.1.15,2013-07-16 12:28:00,
2013-07-16 08:34:00,77.2,76.3,30.36,NE,44,0.0,0.0,97,0.00,,,0.00,Wunderground v.1.15,2013-07-16 12:34:00,
2013-07-16 08:39:00,77.8,75.9,30.36,NE,44,0.0,0.0,94,0.00,,,0.00,Wunderground v.1.15,2013-07-16 12:39:00,
2013-07-16 08:45:00,78.5,76.0,30.36,NE,44,0.0,1.0,92,0.00,,,0.00,Wunderground v.1.15,2013-07-16 12:45:00,
2013-07-16 08:51:00,79.1,75.9,30.36,NE,44,0.0,0.0,90,0.00,,,0.00,Wunderground v.1.15,2013-07-16 12:51:00,
2013-07-16 08:57:00,79.8,75.9,30.36,NE,44,0.0,0.0,88,0.00,,,0.00,Wunderground v.1.15,2013-07-16 12:57:00,
2013-07-16 09:02:00,80.3,76.1,30.36,SSW,200,0.0,1.0,87,0.00,,,0.00,Wunderground v.1.15,2013-07-16 13:02:00,
2013-07-16 09:07:00,80.7,75.4,30.36,SSW,201,1.0,3.0,84,0.00,,,0.00,Wunderground v.1.15,2013-07-16 13:07:00,
2013-07-16 09:13:00,81.1,75.8,30.36,SW,219,2.0,3.0,84,0.00,,,0.00,Wunderground v.1.15,2013-07-16 13:13:00,
2013-07-16 09:19:00,81.5,76.2,30.36,WSW,253,2.0,2.0,84,0.00,,,0.00,Wunderground v.1.15,2013-07-16 13:19:00,
2013-07-16 09:25:00,81.9,76.2,30.36,West,263,2.0,3.0,83,0.00,,,0.00,Wunderground v.1.15,2013-07-16 13:25:00,
2013-07-16 09:31:00,82.3,76.6,30.36,WSW,254,2.0,3.0,83,0.00,,,0.00,Wunderground v.1.15,2013-07-16 13:31:00,
2013-07-16 09:37:00,82.7,77.0,30.36,WSW,238,2.0,3.0,83,0.00,,,0.00,Wunderground v.1.15,2013-07-16 13:37:00,
2013-07-16 09:42:00,83.1,77.4,30.36,West,279,1.0,1.0,83,0.00,,,0.00,Wunderground v.1.15,2013-07-16 13:42:00,
2013-07-16 09:48:00,83.3,76.1,30.36,WSW,242,2.0,4.0,79,0.00,,,0.00,Wunderground v.1.15,2013-07-16 13:48:00,
2013-07-16 09:54:00,83.7,77.2,30.36,SW,234,2.0,2.0,81,0.00,,,0.00,Wunderground v.1.15,2013-07-16 13:54:00,
2013-07-16 10:00:00,83.9,77.4,30.36,WSW,238,1.0,2.0,81,0.00,,,0.00,Wunderground v.1.15,2013-07-16 14:00:00,
2013-07-16 10:06:00,84.1,77.3,30.36,West,264,2.0,5.0,80,0.00,,,0.00,Wunderground v.1.15,2013-07-16 14:06:00,
2013-07-16 10:12:00,84.2,77.4,30.36,SW,224,2.0,3.0,80,0.00,,,0.00,Wunderground v.1.15,2013-07-16 14:12:00,
2013-07-16 10:17:00,84.5,77.6,30.36,SW,229,1.0,3.0,80,0.00,,,0.00,Wunderground v.1.15,2013-07-16 14:17:00,
2013-07-16 10:23:00,84.6,77.0,30.36,NNW,331,1.0,5.0,78,0.00,,,0.00,Wunderground v.1.15,2013-07-16 14:23:00,
2013-07-16 10:29:00,84.7,76.7,30.36,SSW,205,1.0,2.0,77,0.00,,,0.00,Wunderground v.1.15,2013-07-16 14:29:00,
2013-07-16 10:35:00,85.1,77.5,30.36,NNE,17,1.0,2.0,78,0.00,,,0.00,Wunderground v.1.15,2013-07-16 14:35:00,
2013-07-16 10:41:00,85.0,77.4,30.36,WSW,252,1.0,2.0,78,0.00,,,0.00,Wunderground v.1.15,2013-07-16 14:41:00,
2013-07-16 10:46:00,85.0,76.6,30.36,NW,304,2.0,2.0,76,0.00,,,0.00,Wunderground v.1.15,2013-07-16 14:46:00,
2013-07-16 10:52:00,85.3,76.9,30.36,NNW,332,1.0,2.0,76,0.00,,,0.00,Wunderground v.1.15,2013-07-16 14:52:00,
2013-07-16 10:58:00,85.8,76.5,30.36,NW,315,1.0,3.0,74,0.00,,,0.00,Wunderground v.1.15,2013-07-16 14:58:00,
2013-07-16 11:04:00,86.1,77.6,30.36,WNW,298,1.0,2.0,76,0.00,,,0.00,Wunderground v.1.15,2013-07-16 15:04:00,
2013-07-16 11:10:00,86.5,77.2,30.36,NW,319,1.0,3.0,74,0.00,,,0.00,Wunderground v.1.15,2013-07-16 15:10:00,
2013-07-16 11:15:00,86.2,77.3,30.35,West,268,1.0,4.0,75,0.00,,,0.00,Wunderground v.1.15,2013-07-16 15:15:00,
2013-07-16 11:21:00,85.7,78.0,30.35,WNW,294,1.0,2.0,78,0.00,,,0.00,Wunderground v.1.15,2013-07-16 15:21:00,
2013-07-16 11:27:00,85.7,77.7,30.35,SW,236,1.0,4.0,77,0.00,,,0.00,Wunderground v.1.15,2013-07-16 15:27:00,
2013-07-16 11:33:00,85.8,77.8,30.35,WSW,239,3.0,6.0,77,0.00,,,0.00,Wunderground v.1.15,2013-07-16 15:33:00,
2013-07-16 11:39:00,85.9,77.8,30.35,NW,320,3.0,3.0,77,0.00,,,0.00,Wunderground v.1.15,2013-07-16 15:39:00,
2013-07-16 11:44:00,86.1,77.6,30.34,West,275,3.0,5.0,76,0.00,,,0.00,Wunderground v.1.15,2013-07-16 15:44:00,
2013-07-16 11:50:00,86.2,78.1,30.34,NW,313,2.0,2.0,77,0.00,,,0.00,Wunderground v.1.15,2013-07-16 15:50:00,
2013-07-16 11:56:00,86.4,78.3,30.34,NE,34,2.0,2.0,77,0.00,,,0.00,Wunderground v.1.15,2013-07-16 15:56:00,
2013-07-16 12:02:00,86.6,77.7,30.34,WSW,248,2.0,4.0,75,0.00,,,0.00,Wunderground v.1.15,2013-07-16 16:02:00,
2013-07-16 12:07:00,86.7,77.8,30.34,NNW,341,2.0,4.0,75,0.00,,,0.00,Wunderground v.1.15,2013-07-16 16:07:00,
2013-07-16 12:13:00,86.8,78.7,30.35,NNW,333,2.0,3.0,77,0.00,,,0.00,Wunderground v.1.15,2013-07-16 16:13:00,
2013-07-16 12:19:00,86.9,78.4,30.34,West,269,2.0,2.0,76,0.00,,,0.00,Wunderground v.1.15,2013-07-16 16:19:00,
2013-07-16 12:25:00,87.1,78.2,30.34,NNW,333,2.0,3.0,75,0.00,,,0.00,Wunderground v.1.15,2013-07-16 16:25:00,
2013-07-16 12:31:00,87.3,77.2,30.34,NNW,332,2.0,2.0,72,0.00,,,0.00,Wunderground v.1.15,2013-07-16 16:31:00,
2013-07-16 12:37:00,87.4,78.1,30.34,NE,38,2.0,6.0,74,0.00,,,0.00,Wunderground v.1.15,2013-07-16 16:37:00,
2013-07-16 12:43:00,87.4,78.1,30.34,West,269,2.0,5.0,74,0.00,,,0.00,Wunderground v.1.15,2013-07-16 16:43:00,
2013-07-16 12:48:00,87.0,77.3,30.34,NNW,333,2.0,5.0,73,0.00,,,0.00,Wunderground v.1.15,2013-07-16 16:48:00,
2013-07-16 12:54:00,86.7,77.4,30.34,West,279,1.0,2.0,74,0.00,,,0.00,Wunderground v.1.15,2013-07-16 16:54:00,
2013-07-16 13:00:00,86.6,78.1,30.34,WSW,257,1.0,6.0,76,0.00,,,0.00,Wunderground v.1.15,2013-07-16 17:00:00,
2013-07-16 13:06:00,86.3,77.8,30.34,WSW,257,3.0,7.0,76,0.00,,,0.00,Wunderground v.1.15,2013-07-16 17:06:00,
2013-07-16 13:12:00,86.2,77.3,30.34,WSW,255,2.0,6.0,75,0.00,,,0.00,Wunderground v.1.15,2013-07-16 17:12:00,
2013-07-16 13:18:00,86.1,77.2,30.34,NNW,331,1.0,6.0,75,0.00,,,0.00,Wunderground v.1.15,2013-07-16 17:18:00,
2013-07-16 13:23:00,86.1,77.6,30.34,NNW,331,2.0,9.0,76,0.00,,,0.00,Wunderground v.1.15,2013-07-16 17:23:00,
2013-07-16 13:29:00,86.1,77.2,30.34,WSW,257,3.0,3.0,75,0.00,,,0.00,Wunderground v.1.15,2013-07-16 17:29:00,
2013-07-16 13:35:00,86.1,77.6,30.34,WSW,248,3.0,9.0,76,0.00,,,0.00,Wunderground v.1.15,2013-07-16 17:35:00,
2013-07-16 13:41:00,86.0,77.5,30.33,NNW,333,4.0,6.0,76,0.00,,,0.00,Wunderground v.1.15,2013-07-16 17:41:00,
2013-07-16 13:47:00,86.3,78.2,30.33,West,273,2.0,6.0,77,0.00,,,0.00,Wunderground v.1.15,2013-07-16 17:47:00,
2013-07-16 13:52:00,86.5,77.6,30.33,NW,325,2.0,9.0,75,0.00,,,0.00,Wunderground v.1.15,2013-07-16 17:52:00,
2013-07-16 13:58:00,86.5,78.0,30.34,NW,311,3.0,9.0,76,0.00,,,0.00,Wunderground v.1.15,2013-07-16 17:58:00,
2013-07-16 14:04:00,86.6,77.7,30.34,NE,34,2.0,6.0,75,0.00,,,0.00,Wunderground v.1.15,2013-07-16 18:04:00,
2013-07-16 14:09:00,86.6,78.1,30.34,SW,234,2.0,6.0,76,0.00,,,0.00,Wunderground v.1.15,2013-07-16 18:09:00,
2013-07-16 14:14:00,86.6,78.1,30.34,WNW,301,2.0,6.0,76,0.00,,,0.00,Wunderground v.1.15,2013-07-16 18:14:00,
2013-07-16 14:20:00,86.5,77.6,30.34,WSW,240,1.0,6.0,75,0.00,,,0.00,Wunderground v.1.15,2013-07-16 18:20:00,
2013-07-16 14:26:00,86.3,77.8,30.33,WSW,257,2.0,6.0,76,0.00,,,0.00,Wunderground v.1.15,2013-07-16 18:26:00,
2013-07-16 14:32:00,86.2,77.7,30.33,North,355,2.0,6.0,76,0.00,,,0.00,Wunderground v.1.15,2013-07-16 18:32:00,
2013-07-16 14:37:00,86.2,77.7,30.32,North,11,2.0,6.0,76,0.00,,,0.00,Wunderground v.1.15,2013-07-16 18:37:00,
2013-07-16 14:43:00,86.1,77.6,30.32,West,271,2.0,6.0,76,0.00,,,0.00,Wunderground v.1.15,2013-07-16 18:43:00,
2013-07-16 14:49:00,86.1,78.0,30.32,NNW,338,2.0,2.0,77,0.00,,,0.00,Wunderground v.1.15,2013-07-16 18:49:00,
2013-07-16 14:55:00,86.2,78.1,30.32,NNW,327,1.0,6.0,77,0.00,,,0.00,Wunderground v.1.15,2013-07-16 18:55:00,
2013-07-16 15:00:00,86.2,77.3,30.32,NW,312,2.0,2.0,75,0.00,,,0.00,Wunderground v.1.15,2013-07-16 19:00:00,
2013-07-16 15:06:00,86.3,77.4,30.32,WNW,285,1.0,3.0,75,0.00,,,0.00,Wunderground v.1.15,2013-07-16 19:06:00,
2013-07-16 15:11:00,86.3,77.8,30.32,WSW,240,2.0,5.0,76,0.00,,,0.00,Wunderground v.1.15,2013-07-16 19:11:00,
2013-07-16 15:17:00,86.5,78.0,30.32,WSW,250,2.0,5.0,76,0.00,,,0.00,Wunderground v.1.15,2013-07-16 19:17:00,
2013-07-16 15:23:00,86.9,78.0,30.32,WSW,254,1.0,3.0,75,0.00,,,0.00,Wunderground v.1.15,2013-07-16 19:23:00,
2013-07-16 15:29:00,86.9,78.0,30.32,West,259,3.0,4.0,75,0.00,,,0.00,Wunderground v.1.15,2013-07-16 19:29:00,
2013-07-16 15:35:00,86.9,77.6,30.32,WNW,294,3.0,6.0,74,0.00,,,0.00,Wunderground v.1.15,2013-07-16 19:35:00,
2013-07-16 15:41:00,86.9,77.6,30.32,North,5,3.0,3.0,74,0.00,,,0.00,Wunderground v.1.15,2013-07-16 19:41:00,
2013-07-16 15:46:00,86.8,77.1,30.32,WNW,290,2.0,4.0,73,0.00,,,0.00,Wunderground v.1.15,2013-07-16 19:46:00,
2013-07-16 15:52:00,86.7,77.4,30.32,North,355,2.0,5.0,74,0.00,,,0.00,Wunderground v.1.15,2013-07-16 19:52:00,
2013-07-16 15:58:00,86.8,77.1,30.32,SW,232,2.0,5.0,73,0.00,,,0.00,Wunderground v.1.15,2013-07-16 19:58:00,
2013-07-16 16:04:00,86.9,78.0,30.32,North,360,3.0,8.0,75,0.00,,,0.00,Wunderground v.1.15,2013-07-16 20:04:00,
2013-07-16 16:10:00,87.0,77.3,30.32,West,270,3.0,8.0,73,0.00,,,0.00,Wunderground v.1.15,2013-07-16 20:10:00,
2013-07-16 16:15:00,86.9,78.0,30.32,WSW,246,3.0,9.0,75,0.00,,,0.00,Wunderground v.1.15,2013-07-16 20:15:00,
2013-07-16 16:21:00,86.9,77.2,30.32,West,263,3.0,8.0,73,0.00,,,0.00,Wunderground v.1.15,2013-07-16 20:21:00,
2013-07-16 16:27:00,86.9,77.6,30.32,WSW,242,3.0,8.0,74,0.00,,,0.00,Wunderground v.1.15,2013-07-16 20:27:00,
2013-07-16 16:33:00,86.8,77.5,30.32,West,267,3.0,8.0,74,0.00,,,0.00,Wunderground v.1.15,2013-07-16 20:33:00,
2013-07-16 16:39:00,86.7,77.8,30.32,WNW,289,3.0,3.0,75,0.00,,,0.00,Wunderground v.1.15,2013-07-16 20:39:00,
2013-07-16 16:44:00,86.8,77.5,30.32,North,350,3.0,8.0,74,0.00,,,0.00,Wunderground v.1.15,2013-07-16 20:44:00,
2013-07-16 16:50:00,86.8,76.7,30.32,West,277,2.0,8.0,72,0.00,,,0.00,Wunderground v.1.15,2013-07-16 20:50:00,
2013-07-16 16:56:00,86.6,76.9,30.32,NNW,339,3.0,8.0,73,0.00,,,0.00,Wunderground v.1.15,2013-07-16 20:56:00,
2013-07-16 17:02:00,86.7,77.0,30.32,NW,325,2.0,8.0,73,0.00,,,0.00,Wunderground v.1.15,2013-07-16 21:02:00,
2013-07-16 17:08:00,86.7,77.4,30.32,WSW,254,2.0,8.0,74,0.00,,,0.00,Wunderground v.1.15,2013-07-16 21:08:00,
2013-07-16 17:14:00,86.8,77.5,30.31,NW,319,2.0,8.0,74,0.00,,,0.00,Wunderground v.1.15,2013-07-16 21:14:00,
2013-07-16 17:20:00,86.8,77.9,30.31,WSW,241,2.0,8.0,75,0.00,,,0.00,Wunderground v.1.15,2013-07-16 21:20:00,
2013-07-16 17:25:00,86.8,77.1,30.31,West,269,2.0,8.0,73,0.00,,,0.00,Wunderground v.1.15,2013-07-16 21:25:00,
2013-07-16 17:31:00,86.9,78.4,30.31,WNW,285,1.0,8.0,76,0.00,,,0.00,Wunderground v.1.15,2013-07-16 21:31:00,
2013-07-16 17:37:00,86.8,77.1,30.31,West,275,2.0,8.0,73,0.00,,,0.00,Wunderground v.1.15,2013-07-16 21:37:00,
2013-07-16 17:43:00,86.9,78.4,30.31,NNW,338,1.0,8.0,76,0.00,,,0.00,Wunderground v.1.15,2013-07-16 21:43:00,
2013-07-16 17:49:00,87.0,76.9,30.31,WSW,252,1.0,8.0,72,0.00,,,0.00,Wunderground v.1.15,2013-07-16 21:49:00,
2013-07-16 17:55:00,86.9,78.0,30.31,West,280,2.0,8.0,75,0.00,,,0.00,Wunderground v.1.15,2013-07-16 21:55:00,
2013-07-16 18:00:00,86.8,77.9,30.31,WSW,253,1.0,1.0,75,0.00,,,0.00,Wunderground v.1.15,2013-07-16 22:00:00,
2013-07-16 18:06:00,86.6,77.3,30.30,SW,233,2.0,3.0,74,0.00,,,0.00,Wunderground v.1.15,2013-07-16 22:06:00,
2013-07-16 18:12:00,86.4,77.1,30.30,NNW,329,1.0,1.0,74,0.00,,,0.00,Wunderground v.1.15,2013-07-16 22:12:00,
2013-07-16 18:18:00,86.4,77.1,30.29,WNW,302,1.0,5.0,74,0.00,,,0.00,Wunderground v.1.15,2013-07-16 22:18:00,
2013-07-16 18:23:00,86.5,76.8,30.29,WSW,252,2.0,4.0,73,0.00,,,0.00,Wunderground v.1.15,2013-07-16 22:23:00,
2013-07-16 18:29:00,86.6,77.3,30.29,NW,304,1.0,2.0,74,0.00,,,0.00,Wunderground v.1.15,2013-07-16 22:29:00,
2013-07-16 18:35:00,86.6,76.9,30.29,WSW,251,2.0,3.0,73,0.00,,,0.00,Wunderground v.1.15,2013-07-16 22:35:00,
2013-07-16 18:41:00,86.3,77.0,30.29,SW,225,3.0,4.0,74,0.00,,,0.00,Wunderground v.1.15,2013-07-16 22:41:00,
2013-07-16 18:47:00,85.9,76.2,30.30,NNW,327,3.0,5.0,73,0.00,,,0.00,Wunderground v.1.15,2013-07-16 22:47:00,
2013-07-16 18:52:00,85.5,76.3,30.30,WSW,252,3.0,3.0,74,0.00,,,0.00,Wunderground v.1.15,2013-07-16 22:52:00,
2013-07-16 18:53:00,85.4,76.2,30.30,NW,307,3.0,3.0,74,0.00,,,0.00,Wunderground v.1.15,2013-07-16 22:53:00,
2013-07-16 18:59:00,85.2,76.0,30.30,WSW,246,2.0,2.0,74,0.00,,,0.00,Wunderground v.1.15,2013-07-16 22:59:00,
2013-07-16 19:05:00,85.3,76.9,30.30,NNW,329,1.0,6.0,76,0.00,,,0.00,Wunderground v.1.15,2013-07-16 23:05:00,
2013-07-16 19:11:00,85.3,76.1,30.30,WNW,300,2.0,6.0,74,0.00,,,0.00,Wunderground v.1.15,2013-07-16 23:11:00,
2013-07-16 19:17:00,85.4,76.2,30.30,West,259,2.0,6.0,74,0.00,,,0.00,Wunderground v.1.15,2013-07-16 23:17:00,
2013-07-16 19:23:00,85.2,76.0,30.31,West,278,1.0,6.0,74,0.00,,,0.00,Wunderground v.1.15,2013-07-16 23:23:00,
2013-07-16 19:28:00,84.9,75.7,30.31,West,270,1.0,6.0,74,0.00,,,0.00,Wunderground v.1.15,2013-07-16 23:28:00,
2013-07-16 19:34:00,84.8,76.0,30.31,NNW,338,1.0,6.0,75,0.00,,,0.00,Wunderground v.1.15,2013-07-16 23:34:00,
2013-07-16 19:40:00,84.9,76.1,30.31,NW,319,1.0,2.0,75,0.00,,,0.00,Wunderground v.1.15,2013-07-16 23:40:00,
2013-07-16 19:46:00,85.0,76.2,30.31,WNW,301,1.0,6.0,75,0.00,,,0.00,Wunderground v.1.15,2013-07-16 23:46:00,
2013-07-16 19:51:00,85.1,75.9,30.31,West,279,0.0,6.0,74,0.00,,,0.00,Wunderground v.1.15,2013-07-16 23:51:00,
2013-07-16 19:57:00,85.0,75.8,30.31,WNW,296,1.0,6.0,74,0.00,,,0.00,Wunderground v.1.15,2013-07-16 23:57:00,
2013-07-16 20:02:00,84.8,76.0,30.31,NNW,333,1.0,6.0,75,0.00,,,0.00,Wunderground v.1.15,2013-07-17 00:02:00,
2013-07-16 20:08:00,84.4,75.6,30.32,WNW,296,1.0,6.0,75,0.00,,,0.00,Wunderground v.1.15,2013-07-17 00:08:00,
2013-07-16 20:13:00,84.0,75.6,30.31,NW,307,1.0,6.0,76,0.00,,,0.00,Wunderground v.1.15,2013-07-17 00:13:00,
2013-07-16 20:19:00,83.5,75.1,30.32,NW,305,1.0,6.0,76,0.00,,,0.00,Wunderground v.1.15,2013-07-17 00:19:00,
2013-07-16 20:25:00,83.1,75.1,30.31,NW,305,0.0,6.0,77,0.00,,,0.00,Wunderground v.1.15,2013-07-17 00:25:00,
2013-07-16 20:31:00,82.7,74.8,30.31,NW,305,0.0,6.0,77,0.00,,,0.00,Wunderground v.1.15,2013-07-17 00:31:00,
2013-07-16 20:37:00,82.3,74.7,30.31,NW,305,0.0,6.0,78,0.00,,,0.00,Wunderground v.1.15,2013-07-17 00:37:00,
2013-07-16 20:43:00,81.9,74.7,30.31,NW,305,0.0,6.0,79,0.00,,,0.00,Wunderground v.1.15,2013-07-17 00:43:00,
2013-07-16 20:49:00,81.6,74.5,30.31,NW,305,0.0,6.0,79,0.00,,,0.00,Wunderground v.1.15,2013-07-17 00:49:00,
2013-07-16 20:55:00,81.2,74.4,30.31,NW,305,0.0,6.0,80,0.00,,,0.00,Wunderground v.1.15,2013-07-17 00:55:00,
2013-07-16 21:00:00,80.9,74.5,30.31,NW,305,0.0,0.0,81,0.00,,,0.00,Wunderground v.1.15,2013-07-17 01:00:00,
2013-07-16 21:06:00,80.5,74.9,30.31,NW,305,0.0,0.0,83,0.00,,,0.00,Wunderground v.1.15,2013-07-17 01:06:00,
2013-07-16 21:11:00,80.0,74.7,30.31,NW,305,0.0,0.0,84,0.00,,,0.00,Wunderground v.1.15,2013-07-17 01:11:00,
2013-07-16 21:17:00,79.4,74.5,30.31,NW,305,0.0,0.0,85,0.00,,,0.00,Wunderground v.1.15,2013-07-17 01:17:00,
2013-07-16 21:23:00,78.9,74.0,30.31,NW,305,0.0,0.0,85,0.00,,,0.00,Wunderground v.1.15,2013-07-17 01:23:00,
2013-07-16 21:29:00,78.5,74.0,30.31,NW,305,0.0,0.0,86,0.00,,,0.00,Wunderground v.1.15,2013-07-17 01:29:00,
2013-07-16 21:35:00,78.1,73.9,30.31,NW,305,0.0,0.0,87,0.00,,,0.00,Wunderground v.1.15,2013-07-17 01:35:00,
2013-07-16 21:41:00,77.8,73.6,30.31,NW,305,0.0,0.0,87,0.00,,,0.00,Wunderground v.1.15,2013-07-17 01:41:00,
2013-07-16 21:46:00,77.6,73.8,30.31,NW,305,0.0,0.0,88,0.00,,,0.00,Wunderground v.1.15,2013-07-17 01:46:00,
2013-07-16 21:52:00,77.3,73.5,30.31,NW,305,0.0,0.0,88,0.00,,,0.00,Wunderground v.1.15,2013-07-17 01:52:00,
2013-07-16 21:58:00,76.9,73.4,30.31,NW,305,0.0,0.0,89,0.00,,,0.00,Wunderground v.1.15,2013-07-17 01:58:00,
2013-07-16 22:04:00,76.7,73.5,30.32,NW,305,0.0,1.0,90,0.00,,,0.00,Wunderground v.1.15,2013-07-17 02:04:00,
2013-07-16 22:09:00,76.5,73.3,30.32,NW,305,0.0,1.0,90,0.00,,,0.00,Wunderground v.1.15,2013-07-17 02:09:00,
2013-07-16 22:15:00,76.2,73.1,30.32,NW,305,0.0,1.0,90,0.00,,,0.00,Wunderground v.1.15,2013-07-17 02:15:00,
2013-07-16 22:21:00,76.0,73.2,30.31,NW,305,0.0,1.0,91,0.00,,,0.00,Wunderground v.1.15,2013-07-17 02:21:00,
2013-07-16 22:27:00,75.8,73.3,30.32,NW,305,0.0,1.0,92,0.00,,,0.00,Wunderground v.1.15,2013-07-17 02:27:00,
2013-07-16 22:33:00,75.6,73.1,30.32,NW,305,0.0,1.0,92,0.00,,,0.00,Wunderground v.1.15,2013-07-17 02:33:00,
2013-07-16 22:38:00,75.4,72.9,30.32,NW,305,0.0,1.0,92,0.00,,,0.00,Wunderground v.1.15,2013-07-17 02:38:00,
2013-07-16 22:44:00,75.3,73.1,30.32,NW,305,0.0,1.0,93,0.00,,,0.00,Wunderground v.1.15,2013-07-17 02:44:00,
2013-07-16 22:50:00,75.2,73.0,30.32,NW,306,0.0,1.0,93,0.00,,,0.00,Wunderground v.1.15,2013-07-17 02:50:00,
2013-07-16 22:56:00,75.0,72.8,30.32,NW,306,0.0,1.0,93,0.00,,,0.00,Wunderground v.1.15,2013-07-17 02:56:00,
2013-07-16 23:02:00,74.8,72.6,30.32,NW,305,0.0,1.0,93,0.00,,,0.00,Wunderground v.1.15,2013-07-17 03:02:00,
2013-07-16 23:07:00,74.7,72.5,30.32,NW,305,0.0,1.0,93,0.00,,,0.00,Wunderground v.1.15,2013-07-17 03:07:00,
2013-07-16 23:13:00,74.5,72.7,30.32,NW,306,0.0,1.0,94,0.00,,,0.00,Wunderground v.1.15,2013-07-17 03:13:00,
2013-07-16 23:19:00,74.4,72.6,30.32,NW,306,0.0,1.0,94,0.00,,,0.00,Wunderground v.1.15,2013-07-17 03:19:00,
2013-07-16 23:25:00,74.4,72.6,30.31,NW,305,0.0,1.0,94,0.00,,,0.00,Wunderground v.1.15,2013-07-17 03:25:00,
2013-07-16 23:31:00,74.2,72.4,30.31,NW,305,0.0,1.0,94,0.00,,,0.00,Wunderground v.1.15,2013-07-17 03:31:00,
2013-07-16 23:36:00,74.1,72.3,30.31,NW,305,0.0,1.0,94,0.00,,,0.00,Wunderground v.1.15,2013-07-17 03:36:00,
2013-07-16 23:42:00,74.0,72.5,30.31,NW,305,0.0,1.0,95,0.00,,,0.00,Wunderground v.1.15,2013-07-17 03:42:00,
2013-07-16 23:48:00,74.0,72.5,30.32,NW,305,0.0,1.0,95,0.00,,,0.00,Wunderground v.1.15,2013-07-17 03:48:00,
2013-07-16 23:53:00,73.9,72.4,30.32,NW,305,0.0,1.0,95,0.00,,,0.00,Wunderground v.1.15,2013-07-17 03:53:00,